TimeCST,TemperatureF,Dew PointF,Humidity,Sea Level PressureIn,VisibilityMPH,Wind Direction,Wind SpeedMPH,Gust SpeedMPH,PrecipitationIn,Events,Conditions,WindDirDegrees,DateUTC
12:52 AM,-0.0,-9.0,66,30.71,10.0,NW,8.1,-,N/A,,Overcast,320,2014-02-05 06:52:00
1:52 AM,-2.0,-9.9,69,30.72,10.0,NW,8.1,-,N/A,,Scattered Clouds,310,2014-02-05 07:52:00
2:52 AM,-4.0,-11.0,72,30.73,10.0,NW,6.9,-,N/A,,Scattered Clouds,320,2014-02-05 08:52:00
3:52 AM,-2.9,-9.0,75,30.73,10.0,NW,6.9,-,N/A,,Overcast,310,2014-02-05 09:52:00
4:52 AM,-2.0,-7.1,79,30.72,8.0,NW,10.4,-,N/A,,Overcast,310,2014-02-05 10:52:00
5:52 AM,-2.0,-8.0,76,30.72,10.0,NW,9.2,-,N/A,,Partly Cloudy,310,2014-02-05 11:52:00
6:52 AM,-4.0,-9.9,76,30.72,10.0,NW,10.4,-,N/A,,Clear,320,2014-02-05 12:52:00
7:52 AM,-9.0,-13.0,83,30.74,10.0,WNW,6.9,-,N/A,,Clear,300,2014-02-05 13:52:00
8:52 AM,-5.1,-11.0,76,30.74,10.0,NW,8.1,-,N/A,,Clear,310,2014-02-05 14:52:00
9:52 AM,-2.9,-11.0,68,30.75,10.0,NW,13.8,-,N/A,,Clear,310,2014-02-05 15:52:00
10:52 AM,-0.0,-11.0,60,30.75,10.0,NW,17.3,-,N/A,,Clear,320,2014-02-05 16:52:00
11:52 AM,1.9,-9.0,60,30.75,5.0,NW,16.1,-,0.00,Snow,Blowing Snow,320,2014-02-05 17:52:00
12:12 PM,1.9,-8.0,63,30.59,6.0,NNW,15.0,-,0.00,,Overcast,330,2014-02-05 18:12:00
12:52 PM,3.0,-8.0,60,30.72,10.0,NW,17.3,-,0.00,,Mostly Cloudy,320,2014-02-05 18:52:00
1:01 PM,3.0,-8.0,60,30.57,10.0,NW,16.1,-,N/A,,Scattered Clouds,320,2014-02-05 19:01:00
1:52 PM,3.9,-8.0,58,30.70,10.0,NW,16.1,-,N/A,,Scattered Clouds,310,2014-02-05 19:52:00
2:04 PM,3.9,-8.0,58,30.55,10.0,NW,17.3,-,N/A,,Mostly Cloudy,310,2014-02-05 20:04:00
2:52 PM,5.0,-7.1,58,30.69,10.0,NW,17.3,-,N/A,,Overcast,310,2014-02-05 20:52:00
3:52 PM,3.0,-8.0,60,30.69,10.0,NW,16.1,-,N/A,,Overcast,320,2014-02-05 21:52:00
3:59 PM,3.0,-9.0,57,30.55,10.0,NW,13.8,-,N/A,,Overcast,320,2014-02-05 21:59:00
4:52 PM,1.9,-9.0,60,30.69,10.0,NW,13.8,-,N/A,,Overcast,320,2014-02-05 22:52:00
5:52 PM,-0.0,-9.0,66,30.70,10.0,NW,11.5,-,N/A,,Mostly Cloudy,320,2014-02-05 23:52:00
6:52 PM,-0.9,-9.0,69,30.70,10.0,NW,8.1,-,N/A,,Overcast,310,2014-02-06 00:52:00
7:52 PM,-2.9,-9.9,72,30.70,10.0,West,5.8,-,N/A,,Overcast,280,2014-02-06 01:52:00
8:52 PM,-4.0,-11.0,72,30.69,10.0,WNW,8.1,-,N/A,,Overcast,300,2014-02-06 02:52:00
9:52 PM,-6.0,-13.0,72,30.68,10.0,WNW,8.1,-,N/A,,Clear,300,2014-02-06 03:52:00
10:52 PM,-5.1,-13.0,69,30.66,10.0,WNW,11.5,-,N/A,,Clear,300,2014-02-06 04:52:00
11:52 PM,-6.0,-14.1,68,30.64,10.0,NW,13.8,-,N/A,,Clear,310,2014-02-06 05:52:00